Weather observations for the past three days for
Waco, Waco Regional Airport
Imperial (Metric)
Date Time (cdt) Wind (mph) Vis. (mi.) Weather Sky Cond. Temperature (ºF) Relative Humidity Wind Chill (°F) Heat Index (°F) Pressure Precipitation (in)
Air Dwpt 6 hour altimeter (in) sea level (mb) 1 hr 3 hr 6 hr
Max. Min.
19 10:51 E 12 10.00 Partly Cloudy SCT023 84.9 71.1 63% 90 30.1 1018.4
19 09:51 E 6 10.00 Mostly Cloudy BKN011 81 72 74% 85 30.1 1018.4
19 08:51 N 7 10.00 A Few Clouds FEW009 78.1 73 85% 81 30.09 1018.2
19 07:51 N 6 9.00 Fair CLR 75 71.1 88% 75 30.07 1017.5
19 06:51 N 6 10.00 Fair CLR 73 70 77 73 90% 30.05 1016.9
19 05:51 N 3 10.00 Fair CLR 73 71.1 94% 30.04 1016.5
19 04:51 N 5 10.00 Fair CLR 73 71.1 94% 30.04 1016.4
19 03:51 N 6 10.00 Fair CLR 73.9 72 94% 30.04 1016.3
19 02:51 N 3 10.00 Fair CLR 73.9 71.1 91% 30.05 1016.7
19 01:51 Calm 10.00 Fair CLR 75 71.1 88% 75 30.04 1016.4
19 00:51 E 5 10.00 Fair CLR 77 71.1 93 77 82% 79 30.05 1016.7
18 23:51 E 5 10.00 Mostly Cloudy BKN110 80.1 71.1 74% 84 30.05 1016.6
18 22:51 E 7 10.00 Mostly Cloudy BKN110 81 70 69% 84 30.04 1016.4
18 21:51 E 9 10.00 Fair CLR 84 70 63% 88 30.01 1015.5
18 20:51 E 8 10.00 Partly Cloudy FEW100 SCT110 86 70 59% 91 29.99 1014.9
18 19:51 NE 12 10.00 Light Rain BKN055 87.1 70 57% 92 29.97 1013.9
18 18:51 N 10 10.00 Mostly Cloudy BKN070 91.9 66 95 90 43% 95 29.95 1013.3
18 17:51 N 8 10.00 Partly Cloudy SCT065 93.9 66 40% 97 29.95 1013.3
18 16:51 N 10 10.00 Mostly Cloudy BKN065 95 68 41% 100 29.97 1013.9
18 15:51 N 14 10.00 Fair CLR 93 68 44% 97 29.98 1014.5
18 14:51 N 6 10.00 Partly Cloudy FEW050 SCT075 93 68 44% 97 30.01 1015.3
18 13:51 NE 8 10.00 Partly Cloudy FEW049 SCT065 93 68 44% 97 30.03 1016.1
18 12:51 N 8 10.00 Partly Cloudy SCT041 90 69.1 91 73 50% 95 30.06 1017.1
18 11:51 Vrbl 3 10.00 Fair CLR 88 70 55% 93 30.08 1017.9
18 10:51 E 6 10.00 Fair CLR 84.9 72 65% 91 30.09 1018.2
18 09:51 N 3 10.00 Fair CLR 82 73 74% 87 30.08 1017.9
18 08:51 N 7 10.00 Fair CLR 77 72 85% 78 30.06 1017.1
18 07:51 W 3 10.00 Fair CLR 73.9 71.1 91% 30.05 1016.6
18 06:51 N 5 10.00 Fair CLR 73 71.1 77 73 94% 30.03 1016.2
18 05:51 NW 3 10.00 Fair CLR 73.9 71.1 91% 30.02 1015.7
18 04:51 NW 5 10.00 Fair CLR 73.9 72 94% 30.01 1015.3
18 03:51 NW 7 10.00 Mostly Cloudy BKN055 75 72 90% 74 30.01 1015.5
18 02:51 N 9 10.00 Fair CLR 75 73 94% 73 30.01 1015.2
18 01:51 Calm 10.00 A Few Clouds FEW120 75.9 73 91% 76 30.02 1015.7
18 00:51 N 5 10.00 A Few Clouds FEW100 77 73 86 77 88% 78 30.01 1015.5
17 23:51 NW 5 10.00 Fair CLR 77 73.9 90% 78 30 1015.1
17 22:51 E 5 10.00 Fair CLR 78.1 73.9 87% 81 29.99 1014.8
17 21:51 N 6 10.00 Light Rain FEW055 78.1 73 85% 81 29.99 1014.6
17 20:51 N 9 10.00 Partly Cloudy SCT070 SCT090 82 73.9 77% 88 30.01 1015.3
17 19:51 E 7 10.00 Mostly Cloudy BKN070 BKN090 82.9 73 72% 89 29.99 1014.8
17 18:51 NE 6 10.00 Fair CLR 86 75.9 97 79 72% 96 29.97 1014.0 0.39
17 17:51 N 8 10.00 A Few Clouds FEW065 84.9 75 72% 93 29.97 1013.9
17 16:51 NE 3 10.00 Partly Cloudy FEW075 FEW100 SCT110 82.9 73.9 74% 89 29.96 1013.6 0.1
17 15:51 E 8 G 36 0.75 Thunderstorm Heavy Rain SCT029 BKN044 OVC065 81 72 74% 85 29.98 1014.5 0.29 0.29
17 14:51 S 9 10.00 Fair CLR 96.1 68 40% 101 29.95 1013.2
17 13:51 S 13 10.00 Fair CLR 93.9 71.1 48% 101 29.97 1014.1
17 12:51 S 10 10.00 Fair CLR 91 72 91.9 78.1 54% 99 30 1014.8
17 11:51 S 13 10.00 Fair CLR 91 73 56% 100 30.01 1015.3
17 10:51 SW 8 10.00 Fair CLR 88 73 61% 96 30.02 1015.6
17 09:51 SW 8 10.00 Fair CLR 84 73 70% 90 30.02 1015.8
17 08:51 SW 8 10.00 Fair CLR 82 73 74% 87 30.02 1015.6
17 07:51 SW 7 10.00 Fair CLR 80.1 73.9 82% 85 30 1014.9
17 06:51 S 9 10.00 Fair CLR 78.1 73.9 84.9 77 87% 81 29.97 1014.1
17 05:51 S 8 10.00 Fair CLR 78.1 73.9 87% 81 29.98 1014.4
17 04:51 S 14 10.00 Fair CLR 80.1 73.9 82% 85 29.98 1014.2
17 03:51 S 13 10.00 Fair CLR 81 73.9 79% 86 29.97 1013.8
17 02:51 S 10 10.00 Fair CLR 82 73.9 77% 88 29.96 1013.5
17 01:51 S 13 G 23 10.00 Fair CLR 82.9 73.9 74% 89 29.94 1012.8
17 00:51 S 16 10.00 Fair CLR 84.9 73 96.1 84.9 68% 92 29.92 1012.2
16 23:51 S 16 10.00 Fair CLR 86 72 63% 92 29.91 1012.1
16 22:51 S 15 G 24 10.00 Fair CLR 88 70 55% 93 29.9 1011.6
16 21:51 SE 16 10.00 Fair CLR 89.1 70 53% 94 29.89 1011.2
16 20:51 S 8 10.00 Fair CLR 90 66 45% 93 29.88 1011.0
16 19:51 S 14 10.00 Fair CLR 93 66.9 42% 97 29.88 1010.8
16 18:51 S 14 10.00 Fair CLR 96.1 64.9 99 91.9 36% 99 29.87 1010.6
16 17:51 S 14 10.00 Fair CLR 97 63 33% 99 29.88 1011.0
16 16:51 S 14 10.00 Fair CLR 97 63 33% 99 29.9 1011.4
16 15:51 S 14 10.00 Fair CLR 98.1 66 35% 102 29.91 1012.0
16 13:51 S 13 10.00 Fair CLR 93.9 66.9 41% 98 29.95 1013.4
16 12:51 S 13 G 16 10.00 Fair CLR 93 69.1 93 77 46% 98 29.97 1014.1
16 11:51 S 13 10.00 Fair CLR 90 70 52% 95 29.99 1014.8
Date Time (cdt) Wind (mph) Vis. (mi.) Weather Sky Cond. Air Dwpt Max. Min. Relative Humidity Wind Chill (°F) Heat Index (°F) altimeter (in) sea level (mb) 1 hr 3 hr 6 hr
6 hour
Temperature (ºF) Pressure Precipitation (in)